FW8282 Weather Reports


time (UTC)temp
F
wind
direction
speed
knots
gust
knots
rain 1hr
in
rain 24hr
in
rain mn
in
humidity
%
barometer
mb
20260508223058 88 285 4.3 6.1 0.00 0.00 0.00 61 1010.8
20260508222556 89 266 0.0 0.0 0.00 0.00 0.00 60 1010.8
20260508222053 89 314 2.6 2.6 0.00 0.00 0.00 60 1010.7
20260508221549 89 313 1.7 2.6 0.00 0.00 0.00 60 1010.9
20260508221045 89 332 4.3 6.1 0.00 0.00 0.00 59 1010.8
20260508220542 90 61 1.7 4.3 0.00 0.00 0.00 59 1010.8
20260508220038 90 272 3.5 7.0 0.00 0.00 0.00 58 1010.6
20260508215535 90 258 2.6 2.6 0.00 0.00 0.00 58 1010.7
20260508215032 90 76 1.7 2.6 0.00 0.00 0.00 59 1010.7
20260508214529 90 273 4.3 6.1 0.00 0.00 0.00 58 1010.5
20260508214025 90 260 3.5 4.3 0.00 0.00 0.00 58 1010.3
20260508213523 90 333 0.0 0.0 0.00 0.00 0.00 58 1010.3
20260508213018 90 272 0.9 5.2 0.00 0.00 0.00 58 1010.4
20260508212515 90 328 0.9 1.7 0.00 0.00 0.00 58 1010.7
20260508212012 91 239 0.0 0.9 0.00 0.00 0.00 57 1010.6
20260508211507 90 239 2.6 2.6 0.00 0.00 0.00 57 1010.7
20260508211004 91 278 6.1 7.8 0.00 0.00 0.00 57 1010.5
20260508210501 91 252 0.0 0.0 0.00 0.00 0.00 56 1010.4
20260508205957 89 244 0.0 0.0 0.00 0.00 0.00 59 1010.6
20260508205454 91 273 3.5 5.2 0.00 0.00 0.00 57 1010.6
20260508204951 91 245 1.7 4.3 0.00 0.00 0.00 55 1010.5
20260508204448 91 345 0.9 1.7 0.00 0.00 0.00 58 1010.6
20260508203943 90 302 3.5 4.3 0.00 0.00 0.00 58 1010.6
20260508203440 92 316 6.1 7.0 0.00 0.00 0.00 57 1010.8
20260508202935 91 277 0.0 0.0 0.00 0.00 0.00 56 1010.7
20260508202433 91 268 4.3 5.2 0.00 0.00 0.00 57 1011.0
20260508201930 91 268 1.7 2.6 0.00 0.00 0.00 57 1010.8
20260508201426 91 250 2.6 4.3 0.00 0.00 0.00 58 1011.1
20260508200923 91 247 0.0 0.0 0.00 0.00 0.00 56 1011.1
20260508200420 91 211 0.0 0.0 0.00 0.00 0.00 54 1011.1
20260508195915 90 270 0.0 0.0 0.00 0.00 0.00 58 1011.3
20260508195413 89 259 0.0 0.0 0.00 0.00 0.00 58 1011.3
20260508194908 90 274 3.5 4.3 0.00 0.00 0.00 57 1011.3
20260508194406 91 268 4.3 4.3 0.00 0.00 0.00 56 1011.2
20260508193903 93 279 4.3 6.1 0.00 0.00 0.00 54 1011.3
20260508193359 91 200 0.0 0.0 0.00 0.00 0.00 54 1011.4
20260508192856 91 266 3.5 5.2 0.00 0.00 0.00 56 1011.5
20260508192353 91 275 2.6 4.3 0.00 0.00 0.00 58 1011.5
20260508191850 91 318 6.1 7.8 0.00 0.00 0.00 56 1011.9
20260508191348 89 287 1.7 5.2 0.00 0.00 0.00 57 1011.8
20260508190844 91 317 2.6 5.2 0.00 0.00 0.00 57 1012.1
20260508190341 91 270 1.7 2.6 0.00 0.00 0.00 55 1012.0
20260508185837 89 314 2.6 5.2 0.00 0.00 0.00 58 1011.9
20260508185335 92 267 2.6 4.3 0.00 0.00 0.00 57 1012.0
20260508184832 91 316 1.7 2.6 0.00 0.00 0.00 57 1012.3
20260508184329 90 275 1.7 4.3 0.00 0.00 0.00 57 1012.1
20260508183826 89 337 1.7 5.2 0.00 0.00 0.00 59 1012.6
20260508183323 89 195 0.0 0.0 0.00 0.00 0.00 61 1012.5
20260508182818 89 286 2.6 5.2 0.00 0.00 0.00 60 1012.7
20260508182315 91 265 3.5 6.1 0.00 0.00 0.00 59 1012.8
20260508181811 90 253 0.0 0.0 0.00 0.00 0.00 58 1012.6
20260508181308 90 246 0.0 0.0 0.00 0.00 0.00 60 1013.0
20260508180805 91 306 0.0 0.0 0.00 0.00 0.00 58 1013.0
20260508180302 90 266 0.0 0.0 0.00 0.00 0.00 60 1013.0
20260508175758 90 272 4.3 5.2 0.00 0.00 0.00 62 1012.8
20260508175255 90 335 0.0 1.7 0.00 0.00 0.00 62 1012.9
20260508174753 92 196 0.0 0.0 0.00 0.00 0.00 55 1013.0
20260508174250 90 211 0.0 0.9 0.00 0.00 0.00 56 1013.1
20260508173746 89 252 1.7 4.3 0.00 0.00 0.00 58 1013.1
20260508173242 89 256 2.6 5.2 0.00 0.00 0.00 62 1013.2
20260508172739 89 275 2.6 2.6 0.00 0.00 0.00 59 1013.4
20260508172236 89 225 0.9 1.7 0.00 0.00 0.00 61 1013.4
20260508171733 89 192 0.9 4.3 0.00 0.00 0.00 62 1013.4
20260508171228 89 297 1.7 2.6 0.00 0.00 0.00 64 1013.6
20260508170726 88 289 0.0 0.0 0.00 0.00 0.00 63 1013.7
20260508170224 88 241 0.0 0.0 0.00 0.00 0.00 62 1013.5
20260508165720 89 301 0.0 0.0 0.00 0.00 0.00 63 1013.7
20260508165218 88 237 0.0 0.9 0.00 0.00 0.00 64 1013.7
20260508164714 88 244 0.0 0.0 0.00 0.00 0.00 64 1013.8
20260508164210 88 284 0.0 0.0 0.00 0.00 0.00 59 1013.9
20260508163709 88 250 3.5 5.2 0.00 0.00 0.00 62 1014.0
20260508163206 88 258 0.9 4.3 0.00 0.00 0.00 62 1013.7
20260508162701 87 302 0.9 4.3 0.00 0.00 0.00 64 1014.1
20260508162159 87 176 0.0 0.0 0.00 0.00 0.00 65 1014.1
20260508161655 87 256 0.0 0.0 0.00 0.00 0.00 65 1014.2
20260508161153 86 276 1.7 2.6 0.00 0.00 0.00 69 1014.1
20260508160651 87 354 0.9 6.1 0.00 0.00 0.00 70 1014.3
20260508160149 87 276 3.5 5.2 0.00 0.00 0.00 71 1014.6
20260508155645 86 257 2.6 2.6 0.00 0.00 0.00 68 1014.7
20260508155142 85 246 0.0 0.0 0.00 0.00 0.00 70 1014.7
20260508154639 88 261 0.0 0.0 0.00 0.00 0.00 70 1014.6
20260508154136 86 116 0.0 0.0 0.00 0.00 0.00 73 1014.6
20260508153632 85 333 0.0 1.7 0.00 0.00 0.00 70 1014.6
20260508153130 85 150 0.9 1.7 0.00 0.00 0.00 73 1014.7
20260508152626 86 320 4.3 6.1 0.00 0.00 0.00 73 1014.6
20260508152121 85 247 0.0 0.0 0.00 0.00 0.00 73 1014.7
20260508151619 84 107 0.0 0.0 0.00 0.00 0.00 75 1014.8
20260508151115 85 295 3.5 4.3 0.00 0.00 0.00 78 1014.7
20260508150613 87 277 0.0 0.0 0.00 0.00 0.00 75 1014.7
20260508150109 85 279 0.0 0.0 0.00 0.00 0.00 77 1014.9
20260508145605 84 262 0.0 1.7 0.00 0.00 0.00 77 1015.0
20260508145102 82 286 0.0 0.0 0.00 0.00 0.00 81 1014.9
20260508144559 82 247 2.6 4.3 0.00 0.00 0.00 82 1014.9
20260508144056 85 287 0.0 0.0 0.00 0.00 0.00 78 1015.0
20260508143554 84 264 0.0 0.0 0.00 0.00 0.00 79 1014.9
20260508143050 83 250 0.0 0.0 0.00 0.00 0.00 81 1014.8
20260508142547 82 227 0.0 0.0 0.00 0.00 0.00 81 1014.9
20260508142044 83 60 0.0 0.9 0.00 0.00 0.00 81 1015.0
20260508141540 82 282 0.0 0.0 0.00 0.00 0.00 83 1015.0
20260508141038 83 259 0.0 0.0 0.00 0.00 0.00 82 1014.6
20260508140535 82 273 0.0 0.0 0.00 0.00 0.00 82 1014.7
20260508140031 81 170 0.0 0.0 0.00 0.00 0.00 86 1014.9
20260508135527 80 257 0.0 0.0 0.00 0.00 0.00 88 1014.8
20260508135024 80 335 0.0 0.0 0.00 0.00 0.00 87 1015.0
20260508134521 81 25 0.0 0.0 0.00 0.00 0.00 86 1014.9
20260508134018 80 203 0.0 0.0 0.00 0.00 0.00 88 1015.0
20260508133514 80 274 0.0 0.0 0.00 0.00 0.00 88 1014.8
20260508133011 79 164 0.9 0.9 0.00 0.00 0.00 89 1015.0
20260508132510 79 271 0.0 0.0 0.00 0.00 0.00 90 1015.1
20260508132006 78 262 0.0 0.0 0.00 0.00 0.00 92 1014.9
20260508131501 77 301 0.0 0.0 0.00 0.00 0.00 94 1015.0
20260508130958 77 251 0.0 0.0 0.00 0.00 0.00 95 1015.1
20260508130455 77 252 0.0 0.0 0.00 0.00 0.00 96 1015.0
20260508125950 76 286 0.0 0.0 0.00 0.00 0.00 96 1014.9
20260508125447 76 131 0.0 0.0 0.00 0.00 0.00 97 1014.9
20260508124945 75 221 0.0 0.0 0.00 0.00 0.00 97 1014.9
20260508124443 75 198 0.0 0.0 0.00 0.00 0.00 97 1014.9
20260508123940 75 180 0.0 0.0 0.00 0.00 0.00 98 1014.9
20260508123439 74 258 0.0 0.0 0.00 0.00 0.00 98 1014.9
20260508122934 74 164 0.0 0.0 0.00 0.00 0.00 98 1014.7
20260508122431 74 218 0.0 0.0 0.00 0.00 0.00 98 1014.7
20260508121929 73 169 0.0 0.0 0.00 0.00 0.00 98 1014.5
20260508121427 73 151 0.0 0.0 0.00 0.00 0.00 98 1014.6
20260508120924 73 149 0.0 0.0 0.00 0.00 0.00 98 1014.5
20260508120422 73 157 0.0 0.0 0.00 0.00 0.00 98 1014.8
20260508115919 72 158 0.0 0.0 0.00 0.00 0.00 98 1014.2
20260508115418 72 153 0.0 0.0 0.00 0.00 0.00 98 1014.4
20260508114913 71 145 0.0 0.0 0.00 0.00 0.00 98 1014.3
20260508114410 70 151 0.0 0.0 0.00 0.00 0.00 98 1014.3
20260508113907 70 141 0.0 0.0 0.00 0.00 0.00 98 1014.0
20260508113405 70 145 0.0 0.0 0.00 0.00 0.00 98 1014.0
20260508112902 70 141 0.0 0.0 0.00 0.00 0.00 98 1014.0
20260508112358 70 150 0.0 0.0 0.00 0.00 0.00 98 1013.8
20260508111855 69 147 0.0 0.0 0.00 0.00 0.00 98 1013.8
20260508111352 69 149 0.0 0.0 0.00 0.00 0.00 98 1013.5
20260508110849 69 151 0.0 0.0 0.00 0.00 0.00 98 1013.5
20260508110347 69 153 0.0 0.0 0.00 0.00 0.00 98 1013.5
20260508105846 69 161 0.0 0.0 0.00 0.00 0.00 98 1013.5
20260508105343 69 161 0.0 0.0 0.00 0.00 0.00 98 1013.4
20260508104840 69 161 0.0 0.0 0.00 0.00 0.00 98 1013.4
20260508104337 69 161 0.0 0.0 0.00 0.00 0.00 98 1013.3
20260508103835 69 161 0.0 0.0 0.00 0.00 0.00 98 1013.2
20260508103331 69 161 0.0 0.0 0.00 0.00 0.00 98 1013.2
20260508102829 70 161 0.0 0.0 0.00 0.00 0.00 98 1013.2
20260508102327 69 169 0.0 0.0 0.00 0.00 0.00 98 1013.0
20260508101824 70 169 0.0 0.0 0.00 0.00 0.00 98 1012.9
20260508101321 69 166 0.0 0.0 0.00 0.00 0.00 98 1013.0
20260508100819 69 165 0.0 0.0 0.00 0.00 0.00 98 1012.9
20260508100317 70 161 0.0 0.0 0.00 0.00 0.00 98 1013.0
20260508095812 70 161 0.0 0.0 0.00 0.00 0.00 98 1012.7
20260508095310 69 161 0.0 0.0 0.00 0.00 0.00 97 1012.9
20260508094807 69 162 0.0 0.0 0.00 0.00 0.00 97 1012.9
20260508094304 69 162 0.0 0.0 0.00 0.00 0.00 97 1012.5
20260508093801 69 162 0.0 0.0 0.00 0.00 0.00 97 1012.8
20260508093259 69 162 0.0 0.0 0.00 0.00 0.00 97 1012.5
20260508092755 69 161 0.0 0.0 0.00 0.00 0.00 97 1012.4
20260508092254 69 161 0.0 0.0 0.00 0.00 0.00 97 1012.7
20260508091751 69 160 0.0 0.0 0.00 0.00 0.00 97 1012.6
20260508091248 70 160 0.0 0.0 0.00 0.00 0.00 97 1012.4
20260508090746 69 160 0.0 0.0 0.00 0.00 0.00 97 1012.6
20260508090243 69 160 0.0 0.0 0.00 0.00 0.00 97 1012.5
20260508085739 70 157 0.0 0.0 0.00 0.00 0.00 97 1012.4
20260508085236 70 160 0.0 0.0 0.00 0.00 0.00 97 1012.4
20260508084732 70 155 0.0 0.0 0.00 0.00 0.00 97 1012.3
20260508084230 70 155 0.0 0.0 0.00 0.00 0.00 97 1012.3
20260508083727 70 161 0.0 0.0 0.00 0.00 0.00 97 1012.3
20260508083225 70 151 0.0 0.0 0.00 0.00 0.00 97 1012.5
20260508082719 70 150 0.0 0.0 0.00 0.00 0.00 97 1012.5
20260508082218 70 161 0.0 0.0 0.00 0.00 0.00 97 1012.4
20260508081715 70 162 0.0 0.0 0.00 0.00 0.00 97 1012.6
20260508081211 70 151 0.0 0.0 0.00 0.00 0.00 97 1012.1
20260508080708 70 150 0.0 0.0 0.00 0.00 0.00 97 1012.5
20260508080206 71 151 0.0 0.0 0.00 0.00 0.00 97 1012.3
20260508075702 71 143 0.0 0.0 0.00 0.00 0.00 97 1012.5
20260508075200 71 145 0.0 0.0 0.00 0.00 0.00 97 1012.3
20260508074657 71 156 0.0 0.0 0.00 0.00 0.00 97 1012.6
20260508074154 71 155 0.0 0.0 0.00 0.00 0.00 97 1012.6
20260508073651 71 156 0.0 0.0 0.00 0.00 0.00 97 1012.4
20260508073149 71 158 0.0 0.0 0.00 0.00 0.00 97 1012.6
20260508072644 71 158 0.0 0.0 0.00 0.00 0.00 97 1012.4
20260508072142 71 158 0.0 0.0 0.00 0.00 0.00 97 1012.5
20260508071639 71 162 0.0 0.0 0.00 0.00 0.00 97 1012.7
20260508071137 71 162 0.0 0.0 0.00 0.00 0.00 96 1012.7
20260508070635 71 152 0.0 0.0 0.00 0.00 0.00 96 1012.8
20260508070133 71 158 0.0 0.0 0.00 0.00 0.00 96 1013.0
20260508065630 71 162 0.0 0.0 0.00 0.00 0.00 96 1012.9
20260508065128 72 162 0.0 0.0 0.00 0.00 0.00 96 1012.9
20260508064625 72 151 0.0 0.0 0.00 0.00 0.00 96 1012.8
20260508064123 72 151 0.0 0.0 0.00 0.00 0.00 96 1012.8
20260508063620 71 158 0.0 0.0 0.00 0.00 0.00 96 1013.0
20260508062616 71 166 0.0 0.0 0.00 0.00 0.00 96 1012.9
20260508062112 71 156 0.0 0.0 0.00 0.00 0.00 96 1013.1
20260508061609 72 156 0.0 0.0 0.00 0.00 0.00 96 1013.1
20260508061107 72 159 0.0 0.0 0.00 0.00 0.00 96 1013.2
20260508060603 71 152 0.0 0.0 0.00 0.00 0.00 96 1013.1
20260508060101 72 153 0.0 0.0 0.00 0.00 0.00 96 1013.2
20260508055556 72 149 0.0 0.0 0.00 0.00 0.00 95 1013.4
20260508055053 72 162 0.0 0.0 0.00 0.00 0.00 95 1013.3
20260508054549 71 155 0.0 0.0 0.00 0.00 0.00 95 1013.2
20260508054047 71 153 0.0 0.0 0.00 0.00 0.00 95 1013.4
20260508053543 71 153 0.0 0.0 0.00 0.00 0.00 95 1013.3
20260508053042 72 153 0.0 0.0 0.00 0.00 0.00 95 1013.2
20260508052539 72 153 0.0 0.0 0.00 0.00 0.00 95 1013.3
20260508052036 72 152 0.0 0.0 0.00 0.00 0.00 95 1013.5
20260508051532 72 152 0.0 0.0 0.00 0.00 0.00 95 1013.3
20260508051027 73 153 0.0 0.0 0.00 0.00 0.00 95 1013.4
20260508050524 73 160 0.0 0.0 0.00 0.00 0.00 95 1013.5
20260508050021 73 136 0.0 0.0 0.00 0.00 0.00 95 1013.5
20260508045517 73 205 0.0 0.0 0.00 0.00 0.00 95 1013.6
20260508045015 73 141 0.0 0.0 0.00 0.00 0.00 94 1013.7
20260508044512 72 142 0.0 0.0 0.00 0.00 0.00 94 1013.6
20260508044008 72 151 0.0 0.0 0.00 0.00 0.00 94 1013.6
20260508043505 71 149 0.0 0.0 0.00 0.00 0.00 94 1013.5
20260508043001 72 150 0.0 0.0 0.00 0.00 0.00 94 1013.7
20260508042459 73 149 0.0 0.0 0.00 0.00 0.00 93 1013.6
20260508041956 72 152 0.0 0.0 0.00 0.00 0.00 94 1013.5
20260508041452 72 146 0.0 0.0 0.00 0.00 0.00 93 1013.6
20260508040949 73 154 0.0 0.0 0.00 0.00 0.00 93 1013.7
20260508040446 72 151 0.0 0.0 0.00 0.00 0.00 93 1013.8
20260508035944 72 150 0.0 0.0 0.00 0.00 0.00 93 1013.6
20260508035440 72 149 0.0 0.0 0.00 0.00 0.00 92 1013.8
20260508034937 72 149 0.0 0.0 0.00 0.00 0.00 92 1013.8
20260508034435 73 148 0.0 0.0 0.00 0.00 0.00 92 1013.9
20260508033931 73 146 0.0 0.0 0.00 0.00 0.00 92 1013.9
20260508033430 73 147 0.0 0.0 0.00 0.00 0.00 92 1013.7
20260508032926 74 138 0.0 0.0 0.00 0.00 0.00 92 1013.8
20260508032424 73 190 0.0 0.0 0.00 0.00 0.00 92 1013.6
20260508031920 72 149 0.0 0.0 0.00 0.00 0.00 92 1013.6
20260508031418 72 149 0.0 0.0 0.00 0.00 0.00 91 1013.7
20260508030913 73 149 0.0 0.0 0.00 0.00 0.00 91 1013.7
20260508030411 73 144 0.0 0.0 0.00 0.00 0.00 91 1013.7
20260508025908 73 147 0.0 0.0 0.00 0.00 0.00 91 1013.5
20260508025404 74 146 0.0 0.0 0.00 0.00 0.00 90 1013.4
20260508024901 74 137 0.0 0.0 0.00 0.00 0.00 90 1013.4
20260508024358 74 116 0.0 0.0 0.00 0.00 0.00 90 1013.7
20260508023855 74 157 0.0 0.0 0.00 0.00 0.00 89 1013.5
20260508023352 75 157 0.0 0.0 0.00 0.00 0.00 89 1013.7
20260508022848 75 155 0.0 0.0 0.00 0.00 0.00 89 1013.6
20260508022344 75 144 0.0 0.0 0.00 0.00 0.00 88 1013.5
20260508021841 75 2 0.0 0.0 0.00 0.00 0.00 88 1013.6
20260508021337 75 180 0.0 0.0 0.00 0.00 0.00 88 1013.5
20260508020833 76 105 0.0 0.0 0.00 0.00 0.00 87 1013.4
20260508020332 76 222 0.0 0.0 0.00 0.00 0.00 87 1013.5
20260508015829 76 173 0.0 0.0 0.00 0.00 0.00 87 1013.5
20260508015326 76 176 0.0 0.0 0.00 0.00 0.00 86 1013.4
20260508014822 76 178 0.0 0.0 0.00 0.00 0.00 85 1013.5
20260508014320 77 310 0.0 0.0 0.00 0.00 0.00 85 1013.5
20260508013815 77 235 0.0 0.0 0.00 0.00 0.00 84 1013.4
20260508013311 77 261 0.0 0.0 0.00 0.00 0.00 84 1013.5
20260508012809 77 227 0.0 0.0 0.00 0.00 0.00 83 1013.5
20260508012307 77 173 0.0 0.0 0.00 0.00 0.00 82 1013.2
20260508011804 78 277 0.0 0.0 0.00 0.00 0.00 82 1013.3
20260508011301 78 316 0.0 0.0 0.00 0.00 0.00 81 1013.1
20260508010758 78 206 0.0 0.0 0.00 0.00 0.00 80 1013.3
20260508010256 78 218 0.0 0.0 0.00 0.00 0.00 79 1013.3
20260508005753 78 180 1.7 1.7 0.00 0.00 0.00 78 1013.2
20260508005249 78 298 2.6 2.6 0.00 0.00 0.00 78 1013.2
20260508004745 79 203 1.7 2.6 0.00 0.00 0.00 77 1013.2
20260508004242 79 316 0.9 1.7 0.00 0.00 0.00 76 1013.1
20260508003738 79 350 0.0 0.0 0.00 0.00 0.00 75 1013.1
20260508003236 79 253 0.0 0.0 0.00 0.00 0.00 74 1013.0
20260508002732 80 227 0.0 0.0 0.00 0.00 0.00 74 1012.9
20260508002230 80 283 0.0 0.0 0.00 0.00 0.00 73 1013.1
20260508001725 80 206 0.0 0.0 0.00 0.00 0.00 74 1013.1
20260508001221 80 22 0.0 0.0 0.00 0.00 0.00 72 1013.0
20260508000717 81 315 0.0 0.0 0.00 0.00 0.00 72 1012.9
20260508000215 81 209 0.0 0.0 0.00 0.00 0.00 71 1012.9
20260507235711 81 324 0.0 0.0 0.00 0.00 0.00 70 1013.1
20260507235208 82 311 0.0 0.0 0.00 0.00 0.00 69 1013.0
20260507234705 82 348 0.0 0.0 0.00 0.00 0.00 68 1013.2
20260507234202 82 326 0.0 0.0 0.00 0.00 0.00 67 1013.1
20260507233658 83 351 2.6 4.3 0.00 0.00 0.00 65 1013.0
20260507233157 83 191 0.0 0.0 0.00 0.00 0.00 65 1013.2
20260507232653 83 284 4.3 7.8 0.00 0.00 0.00 63 1013.0
20260507232150 84 287 4.3 5.2 0.00 0.00 0.00 61 1012.9
20260507231647 84 255 0.0 0.0 0.00 0.00 0.00 62 1013.0
20260507231144 85 260 0.9 5.2 0.00 0.00 0.00 59 1013.1
20260507230641 85 238 0.0 0.0 0.00 0.00 0.00 58 1013.0
20260507230138 85 1 4.3 5.2 0.00 0.00 0.00 58 1013.2
20260507225637 85 269 0.0 0.9 0.00 0.00 0.00 58 1013.0
20260507225134 86 247 4.3 5.2 0.00 0.00 0.00 56 1012.8
20260507224629 86 282 0.0 0.9 0.00 0.00 0.00 55 1013.0
20260507224126 87 280 3.5 6.1 0.00 0.00 0.00 53 1012.8
20260507223623 88 111 0.0 0.0 0.00 0.00 0.00 50 1013.0